User: anonymous   Login
Location: Drummondville
(45.8830°N, 72.4830°W)
Time: 03:13:30
(UTC-04:00)
Language:

ITUPSAT 1 - Orbit

View from above orbital plane
View from above orbital plane
View from above satellite
View from above satellite

Ground track
Ground track

The orbit data is extracted from the following two-line orbital elements,

1 35935U 09051E   18267.37695432 +.00000062 +00000-0 +25457-4 0  9998
2 35935 098.5735 062.8583 0006991 275.2232 084.8167 14.55469245477720
Epoch (UTC): 24 September 2018 09:02:48
Eccentricity: 0.0006991
inclination: 98.5735°
perigee height: 703 km
apogee height: 713 km
right ascension of ascending node: 62.8583°
argument of perigee: 275.2232°
revolutions per day: 14.55469245
mean anomaly at epoch: 84.8167°
orbit number at epoch: 47772

The dashed part of the orbit path shows where the satellite is in the earth's shadow,  

DLR